Regional Weather Roundup
Issued by NWS

Home | Current Version | Previous Version | Text Only | Print | Product List | Glossary On
Versions: 1 2 3 4 5 6 7 8 9 10 11 12 13 14 15 16 17 18 19 20 21 22 23 24 25 26 27
000
ASCA42 TJSJ 280110
RWRPR
PUERTO RICO/U.S. VIRGIN ISLANDS HOURLY WEATHER ROUNDUP
NATIONAL WEATHER SERVICE SAN JUAN PR
900 PM AST SUN MAY 27 2018

PRZ001>002-007>008-010-280200-
PUERTO RICO

CITY           SKY/WX    TMP DP  RH WIND       PRES   REMARKS
SAN JUAN LMM   PTCLDY    81  75  83 E3        30.04R
CEIBA          CLEAR     79  75  89 CALM      30.06
$$

VIZ001>002-280200-
U.S. VIRGIN ISLANDS

CITY           SKY/WX    TMP DP  RH WIND       PRES   REMARKS
CHARLOTTE AMA  CLOUDY   N/A N/A N/A E8        30.05
$$

HOURLY WEATHER ROUNDUP FOR THE NEWS MEDIA

CITY           SKY/WX    TMP DP  RH WIND       PRES   REMARKS
ORLANDO        MOCLDY    79  75  87 SE10      29.79R
NEW YORK       CLOUDY    56  54  93 NE16G28   30.08R
NEWARK         CLOUDY    59  53  80 NE15      30.06S
CHICAGO        FAIR      87  60  40 SE6       29.85S
HARTFORD       RAIN      51  51 100 NE8G18    30.12S FOG
BOSTON         LGT RAIN  50  48  93 NE16      30.18F
DALLAS         PTCLDY    92  68  45 E12       29.78R HX  96
PHILADELPHIA   LGT RAIN  60  57  89 E12       30.05R
LOS ANGELES    MOSUNNY   65  55  70 W13       29.90S
WASHINGTON DC  MOCLDY    73  69  87 E9        29.97R



USA.gov is the U.S. government's official web portal to all federal, state and local government web resources and services.